Time,TemperatureF,DewpointF,PressureIn,WindDirection,WindDirectionDegrees,WindSpeedMPH,WindSpeedGustMPH,Humidity,HourlyPrecipIn,Conditions,Clouds,dailyrainin,SoftwareType,DateUTC
2013-10-19 00:00:00,43.6,39.7,29.95,WSW,242,4.0,4.0,86,0.00,,,0.00,Wunderground v.1.15,2013-10-19 05:00:00,
2013-10-19 00:04:00,43.5,39.6,29.95,SW,214,4.0,8.0,86,0.00,,,0.00,Wunderground v.1.15,2013-10-19 05:04:00,
2013-10-19 00:08:00,43.5,39.6,29.95,WSW,238,4.0,8.0,86,0.00,,,0.00,Wunderground v.1.15,2013-10-19 05:08:00,
2013-10-19 00:10:00,43.4,39.5,29.95,SW,231,4.0,4.0,86,0.00,,,0.00,Wunderground v.1.15,2013-10-19 05:10:00,
2013-10-19 00:16:00,43.4,39.8,29.95,SW,226,4.0,8.0,87,0.00,,,0.00,Wunderground v.1.15,2013-10-19 05:16:00,
2013-10-19 00:18:00,43.4,39.8,29.95,SW,226,4.0,8.0,87,0.00,,,0.00,Wunderground v.1.15,2013-10-19 05:18:00,
2013-10-19 00:22:00,43.4,39.8,29.94,West,271,4.0,8.0,87,0.00,,,0.00,Wunderground v.1.15,2013-10-19 05:22:00,
2013-10-19 00:24:00,43.5,39.9,29.94,WSW,257,4.0,8.0,87,0.00,,,0.00,Wunderground v.1.15,2013-10-19 05:24:00,
2013-10-19 00:26:00,43.5,39.9,29.94,WSW,255,4.0,8.0,87,0.00,,,0.00,Wunderground v.1.15,2013-10-19 05:26:00,
2013-10-19 00:30:00,43.6,40.0,29.94,SW,228,4.0,8.0,87,0.00,,,0.00,Wunderground v.1.15,2013-10-19 05:30:00,
2013-10-19 00:32:00,43.6,40.0,29.94,WSW,248,4.0,8.0,87,0.00,,,0.00,Wunderground v.1.15,2013-10-19 05:32:00,
2013-10-19 00:36:00,43.6,40.0,29.94,WSW,245,4.0,8.0,87,0.00,,,0.00,Wunderground v.1.15,2013-10-19 05:36:00,
2013-10-19 00:38:00,43.6,40.0,29.94,SW,235,3.0,8.0,87,0.00,,,0.00,Wunderground v.1.15,2013-10-19 05:38:00,
2013-10-19 00:40:00,43.6,40.0,29.94,WSW,242,3.0,3.0,87,0.00,,,0.00,Wunderground v.1.15,2013-10-19 05:40:00,
2013-10-19 00:42:00,43.5,39.9,29.94,SW,231,3.0,8.0,87,0.00,,,0.00,Wunderground v.1.15,2013-10-19 05:42:00,
2013-10-19 00:44:00,43.5,39.9,29.94,SW,231,2.0,8.0,87,0.00,,,0.00,Wunderground v.1.15,2013-10-19 05:44:00,
2013-10-19 00:48:00,43.4,39.8,29.94,SW,222,2.0,8.0,87,0.00,,,0.00,Wunderground v.1.15,2013-10-19 05:48:00,
2013-10-19 00:50:00,43.4,39.8,29.94,SW,236,2.0,8.0,87,0.00,,,0.00,Wunderground v.1.15,2013-10-19 05:50:00,
2013-10-19 00:52:00,43.3,39.7,29.94,SW,236,2.0,8.0,87,0.00,,,0.00,Wunderground v.1.15,2013-10-19 05:52:00,
2013-10-19 00:54:00,43.3,39.7,29.93,WSW,255,2.0,8.0,87,0.00,,,0.00,Wunderground v.1.15,2013-10-19 05:54:00,
2013-10-19 00:56:00,43.3,39.7,29.93,SW,231,3.0,8.0,87,0.00,,,0.00,Wunderground v.1.15,2013-10-19 05:56:00,
2013-10-19 00:58:00,43.3,39.7,29.93,WSW,240,3.0,8.0,87,0.00,,,0.00,Wunderground v.1.15,2013-10-19 05:58:00,
2013-10-19 01:04:00,43.2,39.6,29.93,WSW,250,3.0,8.0,87,0.00,,,0.00,Wunderground v.1.15,2013-10-19 06:04:00,
2013-10-19 01:08:00,43.2,39.6,29.93,WSW,245,3.0,8.0,87,0.00,,,0.00,Wunderground v.1.15,2013-10-19 06:08:00,
2013-10-19 01:10:00,43.2,39.6,29.93,WSW,257,3.0,8.0,87,0.00,,,0.00,Wunderground v.1.15,2013-10-19 06:10:00,
2013-10-19 01:12:00,43.2,39.6,29.93,WSW,243,3.0,8.0,87,0.00,,,0.00,Wunderground v.1.15,2013-10-19 06:12:00,
2013-10-19 01:14:00,43.2,39.6,29.93,WSW,240,3.0,8.0,87,0.00,,,0.00,Wunderground v.1.15,2013-10-19 06:14:00,
2013-10-19 01:16:00,43.2,39.6,29.93,SW,235,3.0,8.0,87,0.00,,,0.00,Wunderground v.1.15,2013-10-19 06:16:00,
2013-10-19 01:18:00,43.2,39.6,29.92,WSW,240,3.0,8.0,87,0.00,,,0.00,Wunderground v.1.15,2013-10-19 06:18:00,
2013-10-19 01:22:00,43.1,39.5,29.92,SW,231,2.0,8.0,87,0.00,,,0.00,Wunderground v.1.15,2013-10-19 06:22:00,
2013-10-19 01:24:00,43.0,39.4,29.92,SW,235,2.0,8.0,87,0.00,,,0.00,Wunderground v.1.15,2013-10-19 06:24:00,
2013-10-19 01:28:00,42.8,39.5,29.92,WSW,243,2.0,8.0,88,0.00,,,0.00,Wunderground v.1.15,2013-10-19 06:28:00,
2013-10-19 01:32:00,42.7,39.4,29.92,SW,219,2.0,8.0,88,0.00,,,0.00,Wunderground v.1.15,2013-10-19 06:32:00,
2013-10-19 01:34:00,42.6,39.3,29.92,SW,235,2.0,8.0,88,0.00,,,0.00,Wunderground v.1.15,2013-10-19 06:34:00,
2013-10-19 01:36:00,42.6,39.3,29.92,SW,219,2.0,8.0,88,0.00,,,0.00,Wunderground v.1.15,2013-10-19 06:36:00,
2013-10-19 01:40:00,42.5,39.2,29.92,WSW,238,2.0,8.0,88,0.00,,,0.00,Wunderground v.1.15,2013-10-19 06:40:00,
2013-10-19 01:46:00,42.4,39.1,29.92,WSW,248,2.0,8.0,88,0.00,,,0.00,Wunderground v.1.15,2013-10-19 06:46:00,
2013-10-19 01:50:00,42.3,39.3,29.92,SW,231,1.0,8.0,89,0.00,,,0.00,Wunderground v.1.15,2013-10-19 06:50:00,
2013-10-19 01:52:00,42.2,39.2,29.92,SW,227,1.0,8.0,89,0.00,,,0.00,Wunderground v.1.15,2013-10-19 06:52:00,
2013-10-19 01:54:00,42.2,39.2,29.92,SW,231,1.0,8.0,89,0.00,,,0.00,Wunderground v.1.15,2013-10-19 06:54:00,
2013-10-19 02:00:00,42.1,39.1,29.91,SSW,203,1.0,8.0,89,0.00,,,0.00,Wunderground v.1.15,2013-10-19 07:00:00,
2013-10-19 02:02:00,42.0,39.0,29.92,SSW,203,1.0,8.0,89,0.00,,,0.00,Wunderground v.1.15,2013-10-19 07:02:00,
2013-10-19 02:06:00,41.8,39.1,29.91,SSW,211,1.0,8.0,90,0.00,,,0.00,Wunderground v.1.15,2013-10-19 07:06:00,
2013-10-19 02:08:00,41.7,39.0,29.92,SSW,211,1.0,8.0,90,0.00,,,0.00,Wunderground v.1.15,2013-10-19 07:08:00,
2013-10-19 02:12:00,41.6,39.2,29.91,SW,214,1.0,8.0,91,0.00,,,0.00,Wunderground v.1.15,2013-10-19 07:12:00,
2013-10-19 02:14:00,41.5,39.1,29.91,SW,233,1.0,8.0,91,0.00,,,0.00,Wunderground v.1.15,2013-10-19 07:14:00,
2013-10-19 02:16:00,41.5,39.1,29.92,WSW,239,1.0,8.0,91,0.00,,,0.00,Wunderground v.1.15,2013-10-19 07:16:00,
2013-10-19 02:20:00,41.5,39.1,29.91,SSW,208,1.0,1.0,91,0.00,,,0.00,Wunderground v.1.15,2013-10-19 07:20:00,
2013-10-19 02:24:00,41.4,39.0,29.91,SW,214,1.0,8.0,91,0.00,,,0.00,Wunderground v.1.15,2013-10-19 07:24:00,
2013-10-19 02:26:00,41.4,39.0,29.91,SSW,212,1.0,8.0,91,0.00,,,0.00,Wunderground v.1.15,2013-10-19 07:26:00,
2013-10-19 02:28:00,41.3,38.9,29.91,SW,233,0.0,8.0,91,0.00,,,0.00,Wunderground v.1.15,2013-10-19 07:28:00,
2013-10-19 02:34:00,41.3,39.2,29.91,SW,225,1.0,8.0,92,0.00,,,0.00,Wunderground v.1.15,2013-10-19 07:34:00,
2013-10-19 02:36:00,41.3,39.2,29.91,SW,224,1.0,8.0,92,0.00,,,0.00,Wunderground v.1.15,2013-10-19 07:36:00,
2013-10-19 02:38:00,41.2,39.1,29.91,SW,222,1.0,8.0,92,0.00,,,0.00,Wunderground v.1.15,2013-10-19 07:38:00,
2013-10-19 02:40:00,41.2,39.1,29.90,SSW,207,1.0,8.0,92,0.00,,,0.00,Wunderground v.1.15,2013-10-19 07:40:00,
2013-10-19 02:44:00,41.1,39.0,29.90,SW,219,1.0,8.0,92,0.00,,,0.00,Wunderground v.1.15,2013-10-19 07:44:00,
2013-10-19 02:46:00,41.1,39.0,29.90,SW,226,1.0,8.0,92,0.00,,,0.00,Wunderground v.1.15,2013-10-19 07:46:00,
2013-10-19 02:48:00,41.0,38.9,29.90,SSW,203,1.0,8.0,92,0.00,,,0.00,Wunderground v.1.15,2013-10-19 07:48:00,
2013-10-19 02:50:00,41.0,38.9,29.90,SSW,203,1.0,1.0,92,0.00,,,0.00,Wunderground v.1.15,2013-10-19 07:50:00,
2013-10-19 02:52:00,40.9,38.8,29.90,SSW,210,1.0,8.0,92,0.00,,,0.00,Wunderground v.1.15,2013-10-19 07:52:00,
2013-10-19 02:56:00,40.8,38.7,29.90,SW,220,1.0,8.0,92,0.00,,,0.00,Wunderground v.1.15,2013-10-19 07:56:00,
2013-10-19 02:58:00,40.7,38.6,29.90,SSW,212,1.0,8.0,92,0.00,,,0.00,Wunderground v.1.15,2013-10-19 07:58:00,
2013-10-19 03:02:00,40.6,38.5,29.90,SSW,200,1.0,8.0,92,0.00,,,0.00,Wunderground v.1.15,2013-10-19 08:02:00,
2013-10-19 03:04:00,40.6,38.5,29.90,SSW,197,2.0,8.0,92,0.00,,,0.00,Wunderground v.1.15,2013-10-19 08:04:00,
2013-10-19 03:06:00,40.5,38.4,29.90,SSW,192,2.0,8.0,92,0.00,,,0.00,Wunderground v.1.15,2013-10-19 08:06:00,
2013-10-19 03:08:00,40.3,38.2,29.90,SW,235,2.0,8.0,92,0.00,,,0.00,Wunderground v.1.15,2013-10-19 08:08:00,
2013-10-19 03:10:00,40.3,38.2,29.90,SSW,202,2.0,2.0,92,0.00,,,0.00,Wunderground v.1.15,2013-10-19 08:10:00,
2013-10-19 03:12:00,40.2,38.1,29.90,SSW,198,2.0,8.0,92,0.00,,,0.00,Wunderground v.1.15,2013-10-19 08:12:00,
2013-10-19 03:14:00,40.1,38.0,29.90,SW,231,2.0,8.0,92,0.00,,,0.00,Wunderground v.1.15,2013-10-19 08:14:00,
2013-10-19 03:20:00,40.0,38.1,29.90,SW,225,1.0,8.0,93,0.00,,,0.00,Wunderground v.1.15,2013-10-19 08:20:00,
2013-10-19 03:22:00,40.0,38.1,29.90,SSW,208,1.0,8.0,93,0.00,,,0.00,Wunderground v.1.15,2013-10-19 08:22:00,
2013-10-19 03:24:00,40.0,38.1,29.89,SSW,211,1.0,8.0,93,0.00,,,0.00,Wunderground v.1.15,2013-10-19 08:24:00,
2013-10-19 03:26:00,40.0,38.1,29.89,SW,228,1.0,8.0,93,0.00,,,0.00,Wunderground v.1.15,2013-10-19 08:26:00,
2013-10-19 03:28:00,40.0,38.1,29.89,WSW,252,1.0,8.0,93,0.00,,,0.00,Wunderground v.1.15,2013-10-19 08:28:00,
2013-10-19 03:30:00,40.0,38.1,29.89,SSW,200,1.0,8.0,93,0.00,,,0.00,Wunderground v.1.15,2013-10-19 08:30:00,
2013-10-19 03:36:00,40.1,38.5,29.89,SW,226,1.0,8.0,94,0.00,,,0.00,Wunderground v.1.15,2013-10-19 08:36:00,
2013-10-19 03:38:00,40.1,38.2,29.89,SW,218,1.0,8.0,93,0.00,,,0.00,Wunderground v.1.15,2013-10-19 08:38:00,
2013-10-19 03:44:00,40.2,38.3,29.89,SW,231,1.0,8.0,93,0.00,,,0.00,Wunderground v.1.15,2013-10-19 08:44:00,
2013-10-19 03:48:00,40.1,38.2,29.89,SSW,207,1.0,8.0,93,0.00,,,0.00,Wunderground v.1.15,2013-10-19 08:48:00,
2013-10-19 03:52:00,40.0,38.1,29.89,SW,231,1.0,2.0,93,0.00,,,0.00,Wunderground v.1.15,2013-10-19 08:52:00,
2013-10-19 03:54:00,39.9,38.0,29.89,SSW,212,1.0,8.0,93,0.00,,,0.00,Wunderground v.1.15,2013-10-19 08:54:00,
2013-10-19 03:56:00,39.9,38.0,29.89,SW,226,1.0,8.0,93,0.00,,,0.00,Wunderground v.1.15,2013-10-19 08:56:00,
2013-10-19 03:58:00,39.9,38.0,29.89,SW,228,1.0,8.0,93,0.00,,,0.00,Wunderground v.1.15,2013-10-19 08:58:00,
2013-10-19 04:00:00,40.0,38.1,29.89,SW,226,2.0,8.0,93,0.00,,,0.00,Wunderground v.1.15,2013-10-19 09:00:00,
2013-10-19 04:02:00,40.0,38.1,29.89,SW,225,2.0,8.0,93,0.00,,,0.00,Wunderground v.1.15,2013-10-19 09:02:00,
2013-10-19 04:06:00,40.1,38.2,29.89,SSW,208,3.0,8.0,93,0.00,,,0.00,Wunderground v.1.15,2013-10-19 09:06:00,
2013-10-19 04:08:00,40.0,38.1,29.89,SSW,212,3.0,8.0,93,0.00,,,0.00,Wunderground v.1.15,2013-10-19 09:08:00,
2013-10-19 04:10:00,40.0,38.1,29.88,SW,224,3.0,3.0,93,0.00,,,0.00,Wunderground v.1.15,2013-10-19 09:10:00,
2013-10-19 04:14:00,39.9,38.0,29.88,SW,215,3.0,8.0,93,0.00,,,0.00,Wunderground v.1.15,2013-10-19 09:14:00,
2013-10-19 04:16:00,39.9,38.0,29.89,SW,231,3.0,8.0,93,0.00,,,0.00,Wunderground v.1.15,2013-10-19 09:16:00,
2013-10-19 04:18:00,39.9,38.0,29.89,SW,217,3.0,8.0,93,0.00,,,0.00,Wunderground v.1.15,2013-10-19 09:18:00,
2013-10-19 04:20:00,39.9,38.0,29.89,WSW,239,3.0,8.0,93,0.00,,,0.00,Wunderground v.1.15,2013-10-19 09:20:00,
2013-10-19 04:24:00,39.9,38.0,29.89,WSW,242,4.0,8.0,93,0.00,,,0.00,Wunderground v.1.15,2013-10-19 09:24:00,
2013-10-19 04:28:00,39.8,37.7,29.89,SSW,207,4.0,8.0,92,0.00,,,0.00,Wunderground v.1.15,2013-10-19 09:28:00,
2013-10-19 04:32:00,39.8,37.7,29.89,SSW,211,3.0,8.0,92,0.00,,,0.00,Wunderground v.1.15,2013-10-19 09:32:00,
2013-10-19 04:34:00,39.8,37.7,29.89,SW,218,3.0,8.0,92,0.00,,,0.00,Wunderground v.1.15,2013-10-19 09:34:00,
2013-10-19 04:38:00,39.7,37.6,29.89,SSW,197,2.0,8.0,92,0.00,,,0.00,Wunderground v.1.15,2013-10-19 09:38:00,
2013-10-19 04:42:00,39.6,37.7,29.89,SSW,207,2.0,8.0,93,0.00,,,0.00,Wunderground v.1.15,2013-10-19 09:42:00,
2013-10-19 04:44:00,39.6,37.7,29.88,SSW,203,1.0,8.0,93,0.00,,,0.00,Wunderground v.1.15,2013-10-19 09:44:00,
2013-10-19 04:48:00,39.6,37.7,29.88,SW,231,1.0,8.0,93,0.00,,,0.00,Wunderground v.1.15,2013-10-19 09:48:00,
2013-10-19 04:50:00,39.6,37.7,29.89,SW,228,1.0,8.0,93,0.00,,,0.00,Wunderground v.1.15,2013-10-19 09:50:00,
2013-10-19 04:52:00,39.6,37.7,29.89,SW,217,2.0,8.0,93,0.00,,,0.00,Wunderground v.1.15,2013-10-19 09:52:00,
2013-10-19 04:54:00,39.6,37.7,29.88,SW,229,2.0,8.0,93,0.00,,,0.00,Wunderground v.1.15,2013-10-19 09:54:00,
2013-10-19 04:56:00,39.6,37.7,29.88,SW,236,2.0,8.0,93,0.00,,,0.00,Wunderground v.1.15,2013-10-19 09:56:00,
2013-10-19 05:02:00,39.7,37.6,29.88,SW,231,4.0,8.0,92,0.00,,,0.00,Wunderground v.1.15,2013-10-19 10:02:00,
2013-10-19 05:04:00,39.7,37.6,29.88,SW,231,4.0,8.0,92,0.00,,,0.00,Wunderground v.1.15,2013-10-19 10:04:00,
2013-10-19 05:06:00,39.7,37.6,29.89,SW,221,5.0,8.0,92,0.00,,,0.00,Wunderground v.1.15,2013-10-19 10:06:00,
2013-10-19 05:10:00,39.8,37.4,29.89,SW,219,5.0,8.0,91,0.00,,,0.00,Wunderground v.1.15,2013-10-19 10:10:00,
2013-10-19 05:12:00,39.8,37.4,29.89,SW,221,5.0,8.0,91,0.00,,,0.00,Wunderground v.1.15,2013-10-19 10:12:00,
2013-10-19 05:14:00,39.8,37.4,29.89,SW,228,6.0,8.0,91,0.00,,,0.00,Wunderground v.1.15,2013-10-19 10:14:00,
2013-10-19 05:16:00,39.8,37.4,29.89,SW,226,6.0,8.0,91,0.00,,,0.00,Wunderground v.1.15,2013-10-19 10:16:00,
2013-10-19 05:18:00,39.7,37.3,29.89,SW,214,6.0,8.0,91,0.00,,,0.00,Wunderground v.1.15,2013-10-19 10:18:00,
2013-10-19 05:20:00,39.7,37.3,29.89,SW,231,6.0,8.0,91,0.00,,,0.00,Wunderground v.1.15,2013-10-19 10:20:00,
2013-10-19 05:24:00,39.6,37.2,29.88,SW,221,6.0,8.0,91,0.00,,,0.00,Wunderground v.1.15,2013-10-19 10:24:00,
2013-10-19 05:26:00,39.5,36.8,29.88,WSW,239,6.0,8.0,90,0.00,,,0.00,Wunderground v.1.15,2013-10-19 10:26:00,
2013-10-19 05:28:00,39.4,36.7,29.88,WSW,255,5.0,8.0,90,0.00,,,0.00,Wunderground v.1.15,2013-10-19 10:28:00,
2013-10-19 05:34:00,39.1,36.7,29.88,SSW,211,4.0,8.0,91,0.00,,,0.00,Wunderground v.1.15,2013-10-19 10:34:00,
2013-10-19 05:36:00,39.1,36.7,29.88,SW,217,4.0,8.0,91,0.00,,,0.00,Wunderground v.1.15,2013-10-19 10:36:00,
2013-10-19 05:38:00,39.1,36.7,29.88,SW,229,5.0,8.0,91,0.00,,,0.00,Wunderground v.1.15,2013-10-19 10:38:00,
2013-10-19 05:40:00,39.1,36.7,29.88,SW,233,5.0,5.0,91,0.00,,,0.00,Wunderground v.1.15,2013-10-19 10:40:00,
2013-10-19 05:42:00,38.9,36.2,29.88,SW,219,5.0,8.0,90,0.00,,,0.00,Wunderground v.1.15,2013-10-19 10:42:00,
2013-10-19 05:44:00,38.8,36.4,29.88,SW,221,4.0,8.0,91,0.00,,,0.00,Wunderground v.1.15,2013-10-19 10:44:00,
2013-10-19 05:46:00,38.8,36.4,29.88,SW,233,4.0,8.0,91,0.00,,,0.00,Wunderground v.1.15,2013-10-19 10:46:00,
2013-10-19 05:50:00,38.8,36.4,29.88,SW,224,4.0,8.0,91,0.00,,,0.00,Wunderground v.1.15,2013-10-19 10:50:00,
2013-10-19 05:54:00,38.6,36.2,29.88,SW,236,5.0,8.0,91,0.00,,,0.00,Wunderground v.1.15,2013-10-19 10:54:00,
2013-10-19 05:58:00,38.2,35.5,29.88,SW,231,5.0,8.0,90,0.00,,,0.00,Wunderground v.1.15,2013-10-19 10:58:00,
2013-10-19 06:00:00,38.0,35.3,29.88,SW,226,4.0,4.0,90,0.00,,,0.00,Wunderground v.1.15,2013-10-19 11:00:00,
2013-10-19 06:02:00,37.9,35.5,29.88,SW,217,3.0,8.0,91,0.00,,,0.00,Wunderground v.1.15,2013-10-19 11:02:00,
2013-10-19 06:08:00,37.4,35.0,29.88,SW,224,2.0,8.0,91,0.00,,,0.00,Wunderground v.1.15,2013-10-19 11:08:00,
2013-10-19 06:10:00,37.2,34.8,29.88,SW,214,2.0,2.0,91,0.00,,,0.00,Wunderground v.1.15,2013-10-19 11:10:00,
2013-10-19 06:12:00,37.1,34.7,29.88,SW,215,2.0,8.0,91,0.00,,,0.00,Wunderground v.1.15,2013-10-19 11:12:00,
2013-10-19 06:14:00,36.8,34.4,29.88,SW,219,1.0,8.0,91,0.00,,,0.00,Wunderground v.1.15,2013-10-19 11:14:00,
2013-10-19 06:18:00,36.4,34.3,29.88,WSW,240,1.0,8.0,92,0.00,,,0.00,Wunderground v.1.15,2013-10-19 11:18:00,
2013-10-19 06:20:00,36.3,34.2,29.88,SSW,208,1.0,8.0,92,0.00,,,0.00,Wunderground v.1.15,2013-10-19 11:20:00,
2013-10-19 06:24:00,35.9,33.8,29.88,SSW,207,1.0,8.0,92,0.00,,,0.00,Wunderground v.1.15,2013-10-19 11:24:00,
2013-10-19 06:26:00,35.7,33.6,29.88,SSW,203,1.0,8.0,92,0.00,,,0.00,Wunderground v.1.15,2013-10-19 11:26:00,
2013-10-19 06:28:00,35.7,33.9,29.88,SW,227,1.0,8.0,93,0.00,,,0.00,Wunderground v.1.15,2013-10-19 11:28:00,
2013-10-19 06:32:00,35.5,33.7,29.88,SW,214,1.0,8.0,93,0.00,,,0.00,Wunderground v.1.15,2013-10-19 11:32:00,
2013-10-19 06:34:00,35.5,33.7,29.88,SW,224,1.0,8.0,93,0.00,,,0.00,Wunderground v.1.15,2013-10-19 11:34:00,
2013-10-19 06:36:00,35.4,33.6,29.88,SSW,198,1.0,8.0,93,0.00,,,0.00,Wunderground v.1.15,2013-10-19 11:36:00,
2013-10-19 06:40:00,35.3,33.7,29.89,SSW,205,1.0,8.0,94,0.00,,,0.00,Wunderground v.1.15,2013-10-19 11:40:00,
2013-10-19 06:42:00,35.2,33.6,29.88,SW,222,1.0,8.0,94,0.00,,,0.00,Wunderground v.1.15,2013-10-19 11:42:00,
2013-10-19 06:46:00,35.3,33.7,29.88,SW,226,2.0,8.0,94,0.00,,,0.00,Wunderground v.1.15,2013-10-19 11:46:00,
2013-10-19 06:48:00,35.3,33.7,29.88,SW,217,2.0,8.0,94,0.00,,,0.00,Wunderground v.1.15,2013-10-19 11:48:00,
2013-10-19 06:50:00,35.3,33.7,29.88,SW,226,2.0,8.0,94,0.00,,,0.00,Wunderground v.1.15,2013-10-19 11:50:00,
2013-10-19 06:52:00,35.4,33.8,29.88,SW,225,3.0,8.0,94,0.00,,,0.00,Wunderground v.1.15,2013-10-19 11:52:00,
2013-10-19 06:54:00,35.3,33.7,29.88,WSW,252,3.0,8.0,94,0.00,,,0.00,Wunderground v.1.15,2013-10-19 11:54:00,
2013-10-19 07:00:00,35.1,33.3,29.89,SW,227,2.0,8.0,93,0.00,,,0.00,Wunderground v.1.15,2013-10-19 12:00:00,
2013-10-19 07:02:00,35.0,33.2,29.88,SW,220,2.0,8.0,93,0.00,,,0.00,Wunderground v.1.15,2013-10-19 12:02:00,
2013-10-19 07:06:00,34.7,32.9,29.88,WSW,243,1.0,8.0,93,0.00,,,0.00,Wunderground v.1.15,2013-10-19 12:06:00,
2013-10-19 07:10:00,34.5,32.7,29.88,SSW,198,1.0,8.0,93,0.00,,,0.00,Wunderground v.1.15,2013-10-19 12:10:00,
2013-10-19 07:12:00,34.3,32.5,29.88,SSW,207,1.0,8.0,93,0.00,,,0.00,Wunderground v.1.15,2013-10-19 12:12:00,
2013-10-19 07:14:00,34.1,32.3,29.88,SW,217,2.0,8.0,93,0.00,,,0.00,Wunderground v.1.15,2013-10-19 12:14:00,
2013-10-19 07:16:00,33.9,32.1,29.88,SW,235,1.0,8.0,93,0.00,,,0.00,Wunderground v.1.15,2013-10-19 12:16:00,
2013-10-19 07:24:00,33.4,31.9,29.88,SW,214,0.0,8.0,94,0.00,,,0.00,Wunderground v.1.15,2013-10-19 12:24:00,
2013-10-19 07:28:00,33.5,32.2,29.88,WSW,238,1.0,8.0,95,0.00,,,0.00,Wunderground v.1.15,2013-10-19 12:28:00,
2013-10-19 07:30:00,33.7,32.4,29.88,SW,218,1.0,8.0,95,0.00,,,0.00,Wunderground v.1.15,2013-10-19 12:30:00,
2013-10-19 07:32:00,33.9,32.6,29.88,SW,226,1.0,8.0,95,0.00,,,0.00,Wunderground v.1.15,2013-10-19 12:32:00,
2013-10-19 07:34:00,34.0,32.7,29.88,SW,225,2.0,8.0,95,0.00,,,0.00,Wunderground v.1.15,2013-10-19 12:34:00,
2013-10-19 07:36:00,34.1,32.8,29.88,WSW,243,2.0,8.0,95,0.00,,,0.00,Wunderground v.1.15,2013-10-19 12:36:00,
2013-10-19 07:38:00,34.3,33.0,29.88,SW,231,2.0,8.0,95,0.00,,,0.00,Wunderground v.1.15,2013-10-19 12:38:00,
2013-10-19 07:40:00,34.3,32.8,29.88,WSW,239,2.0,8.0,94,0.00,,,0.00,Wunderground v.1.15,2013-10-19 12:40:00,
2013-10-19 07:42:00,34.4,32.9,29.88,SW,233,2.0,8.0,94,0.00,,,0.00,Wunderground v.1.15,2013-10-19 12:42:00,
2013-10-19 07:44:00,34.6,33.1,29.88,SSW,211,1.0,8.0,94,0.00,,,0.00,Wunderground v.1.15,2013-10-19 12:44:00,
2013-10-19 07:48:00,34.8,33.2,29.88,SW,220,1.0,8.0,94,0.00,,,0.00,Wunderground v.1.15,2013-10-19 12:48:00,
2013-10-19 07:52:00,35.0,33.4,29.88,WSW,238,1.0,8.0,94,0.00,,,0.00,Wunderground v.1.15,2013-10-19 12:52:00,
2013-10-19 07:54:00,35.1,33.5,29.88,SSW,207,1.0,8.0,94,0.00,,,0.00,Wunderground v.1.15,2013-10-19 12:54:00,
2013-10-19 07:56:00,35.3,33.7,29.88,SW,225,1.0,8.0,94,0.00,,,0.00,Wunderground v.1.15,2013-10-19 12:56:00,
2013-10-19 08:00:00,35.6,34.0,29.88,WSW,243,2.0,8.0,94,0.00,,,0.00,Wunderground v.1.15,2013-10-19 13:00:00,
2013-10-19 08:02:00,35.8,34.2,29.88,SW,224,2.0,8.0,94,0.00,,,0.00,Wunderground v.1.15,2013-10-19 13:02:00,
2013-10-19 08:06:00,36.2,34.6,29.88,WSW,253,3.0,8.0,94,0.00,,,0.00,Wunderground v.1.15,2013-10-19 13:06:00,
2013-10-19 08:08:00,36.5,34.9,29.88,SW,235,3.0,8.0,94,0.00,,,0.00,Wunderground v.1.15,2013-10-19 13:08:00,
2013-10-19 08:10:00,36.6,35.0,29.88,SW,219,3.0,8.0,94,0.00,,,0.00,Wunderground v.1.15,2013-10-19 13:10:00,
2013-10-19 08:14:00,37.1,35.5,29.88,SW,214,4.0,8.0,94,0.00,,,0.00,Wunderground v.1.15,2013-10-19 13:14:00,
2013-10-19 08:16:00,37.3,35.7,29.88,SSW,208,5.0,8.0,94,0.00,,,0.00,Wunderground v.1.15,2013-10-19 13:16:00,
2013-10-19 08:18:00,37.5,35.9,29.88,SW,214,5.0,8.0,94,0.00,,,0.00,Wunderground v.1.15,2013-10-19 13:18:00,
2013-10-19 08:20:00,37.7,35.9,29.88,SW,225,5.0,8.0,93,0.00,,,0.00,Wunderground v.1.15,2013-10-19 13:20:00,
2013-10-19 08:24:00,37.9,35.8,29.88,SW,231,6.0,10.0,92,0.00,,,0.00,Wunderground v.1.15,2013-10-19 13:24:00,
2013-10-19 08:26:00,38.1,36.0,29.88,SW,222,6.0,10.0,92,0.00,,,0.00,Wunderground v.1.15,2013-10-19 13:26:00,
2013-10-19 08:28:00,38.3,36.2,29.88,SW,231,7.0,10.0,92,0.00,,,0.00,Wunderground v.1.15,2013-10-19 13:28:00,
2013-10-19 08:34:00,38.7,36.3,29.88,SW,221,8.0,9.0,91,0.00,,,0.00,Wunderground v.1.15,2013-10-19 13:34:00,
2013-10-19 08:36:00,38.9,36.5,29.88,SW,228,8.0,11.0,91,0.00,,,0.00,Wunderground v.1.15,2013-10-19 13:36:00,
2013-10-19 08:38:00,39.1,36.7,29.88,SW,226,8.0,11.0,91,0.00,,,0.00,Wunderground v.1.15,2013-10-19 13:38:00,
2013-10-19 08:40:00,39.2,36.8,29.88,SW,224,8.0,8.0,91,0.00,,,0.00,Wunderground v.1.15,2013-10-19 13:40:00,
2013-10-19 08:42:00,39.4,36.7,29.88,SW,221,9.0,9.0,90,0.00,,,0.00,Wunderground v.1.15,2013-10-19 13:42:00,
2013-10-19 08:46:00,39.7,37.0,29.88,SW,221,9.0,11.0,90,0.00,,,0.00,Wunderground v.1.15,2013-10-19 13:46:00,
2013-10-19 08:50:00,39.9,36.6,29.88,SW,226,10.0,11.0,88,0.00,,,0.00,Wunderground v.1.15,2013-10-19 13:50:00,
2013-10-19 08:52:00,40.0,36.7,29.88,SW,226,10.0,13.0,88,0.00,,,0.00,Wunderground v.1.15,2013-10-19 13:52:00,
2013-10-19 08:56:00,40.3,37.0,29.88,SW,227,10.0,13.0,88,0.00,,,0.00,Wunderground v.1.15,2013-10-19 13:56:00,
2013-10-19 08:58:00,40.5,36.9,29.88,SW,231,10.0,13.0,87,0.00,,,0.00,Wunderground v.1.15,2013-10-19 13:58:00,
2013-10-19 09:02:00,41.1,37.8,29.88,WSW,239,9.0,9.0,88,0.00,,,0.00,Wunderground v.1.15,2013-10-19 14:02:00,
2013-10-19 09:04:00,41.3,37.4,29.88,SW,226,9.0,14.0,86,0.00,,,0.00,Wunderground v.1.15,2013-10-19 14:04:00,
2013-10-19 09:06:00,41.5,37.6,29.88,WSW,243,9.0,14.0,86,0.00,,,0.00,Wunderground v.1.15,2013-10-19 14:06:00,
2013-10-19 09:10:00,41.7,36.9,29.88,SSW,210,10.0,10.0,83,0.00,,,0.00,Wunderground v.1.15,2013-10-19 14:10:00,
2013-10-19 09:12:00,41.9,37.7,29.87,SW,224,11.0,11.0,85,0.00,,,0.00,Wunderground v.1.15,2013-10-19 14:12:00,
2013-10-19 09:14:00,42.0,37.5,29.87,SW,226,11.0,11.0,84,0.00,,,0.00,Wunderground v.1.15,2013-10-19 14:14:00,
2013-10-19 09:16:00,42.0,37.2,29.87,WSW,248,11.0,11.0,83,0.00,,,0.00,Wunderground v.1.15,2013-10-19 14:16:00,
2013-10-19 09:18:00,42.0,37.2,29.87,WSW,248,12.0,12.0,83,0.00,,,0.00,Wunderground v.1.15,2013-10-19 14:18:00,
2013-10-19 09:20:00,42.0,37.5,29.87,SW,226,11.0,12.0,84,0.00,,,0.00,Wunderground v.1.15,2013-10-19 14:20:00,
2013-10-19 09:24:00,42.1,37.3,29.87,SW,236,12.0,15.0,83,0.00,,,0.00,Wunderground v.1.15,2013-10-19 14:24:00,
2013-10-19 09:28:00,42.1,37.3,29.87,SW,231,12.0,17.0,83,0.00,,,0.00,Wunderground v.1.15,2013-10-19 14:28:00,
2013-10-19 09:30:00,42.1,37.0,29.88,WSW,240,12.0,12.0,82,0.00,,,0.00,Wunderground v.1.15,2013-10-19 14:30:00,
2013-10-19 09:32:00,42.1,37.0,29.88,SW,233,12.0,12.0,82,0.00,,,0.00,Wunderground v.1.15,2013-10-19 14:32:00,
2013-10-19 09:34:00,42.3,38.1,29.88,SSW,203,11.0,12.0,85,0.00,,,0.00,Wunderground v.1.15,2013-10-19 14:34:00,
2013-10-19 09:36:00,42.4,37.9,29.88,SSW,210,10.0,12.0,84,0.00,,,0.00,Wunderground v.1.15,2013-10-19 14:36:00,
2013-10-19 09:39:00,42.4,37.0,29.87,SW,215,10.0,12.0,81,0.00,,,0.00,Wunderground v.1.15,2013-10-19 14:39:00,
2013-10-19 09:40:00,42.3,36.9,29.88,SSW,203,10.0,10.0,81,0.00,,,0.00,Wunderground v.1.15,2013-10-19 14:40:00,
2013-10-19 09:42:00,42.2,36.8,29.88,SW,231,10.0,10.0,81,0.00,,,0.00,Wunderground v.1.15,2013-10-19 14:42:00,
2013-10-19 09:46:00,42.3,37.2,29.88,SW,232,10.0,15.0,82,0.00,,,0.00,Wunderground v.1.15,2013-10-19 14:46:00,
2013-10-19 09:48:00,42.2,37.1,29.88,SW,217,10.0,15.0,82,0.00,,,0.00,Wunderground v.1.15,2013-10-19 14:48:00,
2013-10-19 09:50:00,42.2,37.1,29.88,SW,225,10.0,10.0,82,0.00,,,0.00,Wunderground v.1.15,2013-10-19 14:50:00,
2013-10-19 09:52:00,42.3,37.2,29.88,SW,225,10.0,15.0,82,0.00,,,0.00,Wunderground v.1.15,2013-10-19 14:52:00,
2013-10-19 09:54:00,42.3,37.2,29.88,SW,221,10.0,15.0,82,0.00,,,0.00,Wunderground v.1.15,2013-10-19 14:54:00,
2013-10-19 09:56:00,42.3,37.2,29.87,SW,231,10.0,15.0,82,0.00,,,0.00,Wunderground v.1.15,2013-10-19 14:56:00,
2013-10-19 10:00:00,42.3,36.9,29.87,WSW,238,10.0,14.0,81,0.00,,,0.00,Wunderground v.1.15,2013-10-19 15:00:00,
2013-10-19 10:02:00,42.3,37.2,29.87,WSW,240,10.0,14.0,82,0.00,,,0.00,Wunderground v.1.15,2013-10-19 15:02:00,
2013-10-19 10:04:00,42.4,37.3,29.87,WSW,248,10.0,14.0,82,0.00,,,0.00,Wunderground v.1.15,2013-10-19 15:04:00,
2013-10-19 10:08:00,42.7,37.3,29.87,SW,229,10.0,14.0,81,0.00,,,0.00,Wunderground v.1.15,2013-10-19 15:08:00,
2013-10-19 10:10:00,42.8,37.4,29.87,SW,236,10.0,12.0,81,0.00,,,0.00,Wunderground v.1.15,2013-10-19 15:10:00,
2013-10-19 10:14:00,42.8,37.1,29.87,SSW,210,10.0,14.0,80,0.00,,,0.00,Wunderground v.1.15,2013-10-19 15:14:00,
2013-10-19 10:18:00,43.0,37.3,29.87,SW,226,10.0,14.0,80,0.00,,,0.00,Wunderground v.1.15,2013-10-19 15:18:00,
2013-10-19 10:22:00,43.1,37.0,29.87,WSW,255,10.0,12.0,79,0.00,,,0.00,Wunderground v.1.15,2013-10-19 15:22:00,
2013-10-19 10:28:00,43.5,37.4,29.87,SW,231,9.0,12.0,79,0.00,,,0.00,Wunderground v.1.15,2013-10-19 15:28:00,
2013-10-19 10:30:00,43.5,37.4,29.87,SW,217,9.0,10.0,79,0.00,,,0.00,Wunderground v.1.15,2013-10-19 15:30:00,
2013-10-19 10:34:00,43.6,37.5,29.87,WSW,242,9.0,12.0,79,0.00,,,0.00,Wunderground v.1.15,2013-10-19 15:34:00,
2013-10-19 10:36:00,43.5,37.4,29.87,SSW,192,9.0,12.0,79,0.00,,,0.00,Wunderground v.1.15,2013-10-19 15:36:00,
2013-10-19 10:40:00,43.4,37.3,29.87,West,280,9.0,9.0,79,0.00,,,0.00,Wunderground v.1.15,2013-10-19 15:40:00,
2013-10-19 10:42:00,43.4,37.3,29.87,SW,236,10.0,11.0,79,0.00,,,0.00,Wunderground v.1.15,2013-10-19 15:42:00,
2013-10-19 10:44:00,43.4,37.3,29.87,SW,224,9.0,11.0,79,0.00,,,0.00,Wunderground v.1.15,2013-10-19 15:44:00,
2013-10-19 10:58:00,43.4,37.6,29.87,WSW,240,10.0,10.0,80,0.00,,,0.00,Wunderground v.1.15,2013-10-19 15:58:00,
2013-10-19 11:00:00,43.5,37.7,29.87,WSW,248,10.0,10.0,80,0.00,,,0.00,Wunderground v.1.15,2013-10-19 16:00:00,
2013-10-19 11:04:00,43.7,38.3,29.87,SW,228,11.0,11.0,81,0.00,,,0.00,Wunderground v.1.15,2013-10-19 16:04:00,
2013-10-19 11:06:00,44.0,38.5,29.87,SW,233,11.0,11.0,81,0.00,,,0.00,Wunderground v.1.15,2013-10-19 16:06:00,
2013-10-19 11:10:00,44.4,38.3,29.87,WSW,238,10.0,13.0,79,0.00,,,0.00,Wunderground v.1.15,2013-10-19 16:10:00,
2013-10-19 11:12:00,44.5,38.4,29.87,SSW,211,10.0,13.0,79,0.00,,,0.00,Wunderground v.1.15,2013-10-19 16:12:00,
2013-10-19 11:16:00,45.1,38.6,29.87,SW,230,10.0,13.0,78,0.00,,,0.00,Wunderground v.1.15,2013-10-19 16:16:00,
2013-10-19 11:18:00,45.3,38.8,29.87,SSW,212,9.0,13.0,78,0.00,,,0.00,Wunderground v.1.15,2013-10-19 16:18:00,
2013-10-19 11:22:00,45.9,39.4,29.87,WSW,246,9.0,12.0,78,0.00,,,0.00,Wunderground v.1.15,2013-10-19 16:22:00,
2013-10-19 11:24:00,46.0,38.9,29.87,SW,215,9.0,12.0,76,0.00,,,0.00,Wunderground v.1.15,2013-10-19 16:24:00,
2013-10-19 11:26:00,46.2,39.4,29.86,SW,235,9.0,12.0,77,0.00,,,0.00,Wunderground v.1.15,2013-10-19 16:26:00,
2013-10-19 11:28:00,46.5,39.0,29.86,SW,225,9.0,12.0,75,0.00,,,0.00,Wunderground v.1.15,2013-10-19 16:28:00,
2013-10-19 11:30:00,46.6,39.1,29.86,SW,224,10.0,12.0,75,0.00,,,0.00,Wunderground v.1.15,2013-10-19 16:30:00,
2013-10-19 11:32:00,46.8,39.6,29.86,WSW,238,10.0,12.0,76,0.00,,,0.00,Wunderground v.1.15,2013-10-19 16:32:00,
2013-10-19 11:34:00,47.0,39.5,29.86,WSW,243,10.0,12.0,75,0.00,,,0.00,Wunderground v.1.15,2013-10-19 16:34:00,
2013-10-19 11:36:00,47.3,39.8,29.86,West,264,10.0,12.0,75,0.00,,,0.00,Wunderground v.1.15,2013-10-19 16:36:00,
2013-10-19 11:38:00,47.5,40.0,29.86,WSW,256,10.0,13.0,75,0.00,,,0.00,Wunderground v.1.15,2013-10-19 16:38:00,
2013-10-19 11:44:00,47.7,39.8,29.85,WSW,251,9.0,10.0,74,0.00,,,0.00,Wunderground v.1.15,2013-10-19 16:44:00,
2013-10-19 11:46:00,47.9,40.0,29.85,WSW,255,9.0,11.0,74,0.00,,,0.00,Wunderground v.1.15,2013-10-19 16:46:00,
2013-10-19 11:50:00,48.3,39.7,29.85,SW,229,9.0,9.0,72,0.00,,,0.00,Wunderground v.1.15,2013-10-19 16:50:00,
2013-10-19 11:52:00,48.3,39.7,29.85,WSW,255,9.0,10.0,72,0.00,,,0.00,Wunderground v.1.15,2013-10-19 16:52:00,
2013-10-19 11:54:00,48.5,39.9,29.85,SW,214,9.0,10.0,72,0.00,,,0.00,Wunderground v.1.15,2013-10-19 16:54:00,
2013-10-19 11:58:00,48.9,39.5,29.85,WSW,246,11.0,14.0,70,0.00,,,0.00,Wunderground v.1.15,2013-10-19 16:58:00,
2013-10-19 12:00:00,49.0,40.0,29.85,West,271,11.0,11.0,71,0.00,,,0.00,Wunderground v.1.15,2013-10-19 17:00:00,
2013-10-19 12:04:00,49.4,40.0,29.85,WSW,238,10.0,13.0,70,0.00,,,0.00,Wunderground v.1.15,2013-10-19 17:04:00,
2013-10-19 12:06:00,49.4,39.7,29.85,SW,227,10.0,15.0,69,0.00,,,0.00,Wunderground v.1.15,2013-10-19 17:06:00,
2013-10-19 12:08:00,49.4,39.7,29.85,SW,223,10.0,15.0,69,0.00,,,0.00,Wunderground v.1.15,2013-10-19 17:08:00,
2013-10-19 12:10:00,49.6,40.2,29.85,WSW,239,10.0,11.0,70,0.00,,,0.00,Wunderground v.1.15,2013-10-19 17:10:00,
2013-10-19 12:12:00,49.7,39.6,29.85,West,273,11.0,11.0,68,0.00,,,0.00,Wunderground v.1.15,2013-10-19 17:12:00,
2013-10-19 12:16:00,49.9,39.8,29.84,SW,224,11.0,12.0,68,0.00,,,0.00,Wunderground v.1.15,2013-10-19 17:16:00,
2013-10-19 12:18:00,50.2,39.7,29.84,SW,218,11.0,14.0,67,0.00,,,0.00,Wunderground v.1.15,2013-10-19 17:18:00,
2013-10-19 12:20:00,50.2,39.7,29.84,SSW,207,12.0,12.0,67,0.00,,,0.00,Wunderground v.1.15,2013-10-19 17:20:00,
2013-10-19 12:22:00,50.4,40.2,29.84,SW,215,11.0,12.0,68,0.00,,,0.00,Wunderground v.1.15,2013-10-19 17:22:00,
2013-10-19 12:24:00,50.5,39.6,29.84,WSW,246,12.0,15.0,66,0.00,,,0.00,Wunderground v.1.15,2013-10-19 17:24:00,
2013-10-19 12:28:00,50.5,39.2,29.84,WSW,255,11.0,15.0,65,0.00,,,0.00,Wunderground v.1.15,2013-10-19 17:28:00,
2013-10-19 12:30:00,50.6,39.3,29.84,WSW,248,11.0,16.0,65,0.00,,,0.00,Wunderground v.1.15,2013-10-19 17:30:00,
2013-10-19 12:32:00,50.6,38.9,29.83,West,278,11.0,16.0,64,0.00,,,0.00,Wunderground v.1.15,2013-10-19 17:32:00,
2013-10-19 12:34:00,50.7,38.6,29.83,West,278,11.0,16.0,63,0.00,,,0.00,Wunderground v.1.15,2013-10-19 17:34:00,
2013-10-19 12:36:00,50.9,38.7,29.83,SW,230,11.0,16.0,63,0.00,,,0.00,Wunderground v.1.15,2013-10-19 17:36:00,
2013-10-19 12:40:00,51.2,39.4,29.83,SW,221,12.0,20.0,64,0.00,,,0.00,Wunderground v.1.15,2013-10-19 17:40:00,
2013-10-19 12:42:00,51.2,38.6,29.83,WSW,250,13.0,20.0,62,0.00,,,0.00,Wunderground v.1.15,2013-10-19 17:42:00,
2013-10-19 12:46:00,51.8,39.6,29.83,WSW,250,12.0,20.0,63,0.00,,,0.00,Wunderground v.1.15,2013-10-19 17:46:00,
2013-10-19 12:48:00,51.9,38.4,29.83,SW,226,12.0,20.0,60,0.00,,,0.00,Wunderground v.1.15,2013-10-19 17:48:00,
2013-10-19 12:54:00,51.9,39.3,29.83,WSW,240,11.0,16.0,62,0.00,,,0.00,Wunderground v.1.15,2013-10-19 17:54:00,
2013-10-19 12:56:00,51.9,38.0,29.83,WSW,248,11.0,16.0,59,0.00,,,0.00,Wunderground v.1.15,2013-10-19 17:56:00,
2013-10-19 12:58:00,51.6,38.2,29.83,SW,228,11.0,16.0,60,0.00,,,0.00,Wunderground v.1.15,2013-10-19 17:58:00,
2013-10-19 13:00:00,51.4,38.4,29.83,West,281,10.0,10.0,61,0.00,,,0.00,Wunderground v.1.15,2013-10-19 18:00:00,
2013-10-19 13:02:00,51.6,38.6,29.83,WSW,257,10.0,10.0,61,0.00,,,0.00,Wunderground v.1.15,2013-10-19 18:02:00,
2013-10-19 13:06:00,51.9,37.6,29.83,WSW,248,10.0,14.0,58,0.00,,,0.00,Wunderground v.1.15,2013-10-19 18:06:00,
2013-10-19 13:08:00,51.8,38.3,29.83,West,270,9.0,14.0,60,0.00,,,0.00,Wunderground v.1.15,2013-10-19 18:08:00,
2013-10-19 13:10:00,52.0,39.0,29.83,SW,233,9.0,9.0,61,0.00,,,0.00,Wunderground v.1.15,2013-10-19 18:10:00,
2013-10-19 13:12:00,52.4,38.0,29.83,WSW,239,9.0,12.0,58,0.00,,,0.00,Wunderground v.1.15,2013-10-19 18:12:00,
2013-10-19 13:14:00,52.8,38.4,29.83,WSW,250,10.0,19.0,58,0.00,,,0.00,Wunderground v.1.15,2013-10-19 18:14:00,
2013-10-19 13:16:00,53.0,37.3,29.83,SW,233,11.0,19.0,55,0.00,,,0.00,Wunderground v.1.15,2013-10-19 18:16:00,
2013-10-19 13:18:00,53.0,36.8,29.82,SW,226,11.0,19.0,54,0.00,,,0.00,Wunderground v.1.15,2013-10-19 18:18:00,
2013-10-19 13:22:00,53.2,37.4,29.82,WSW,252,13.0,22.0,55,0.00,,,0.00,Wunderground v.1.15,2013-10-19 18:22:00,
2013-10-19 13:24:00,53.0,36.8,29.82,WSW,246,12.0,22.0,54,0.00,,,0.00,Wunderground v.1.15,2013-10-19 18:24:00,
2013-10-19 13:28:00,53.0,37.3,29.82,WSW,239,11.0,22.0,55,0.00,,,0.00,Wunderground v.1.15,2013-10-19 18:28:00,
2013-10-19 13:30:00,53.3,36.6,29.82,WSW,252,11.0,11.0,53,0.00,,,0.00,Wunderground v.1.15,2013-10-19 18:30:00,
2013-10-19 13:32:00,53.4,36.7,29.82,West,263,12.0,12.0,53,0.00,,,0.00,Wunderground v.1.15,2013-10-19 18:32:00,
2013-10-19 13:34:00,53.1,36.4,29.82,SW,223,12.0,12.0,53,0.00,,,0.00,Wunderground v.1.15,2013-10-19 18:34:00,
2013-10-19 13:36:00,52.8,36.6,29.82,SW,221,13.0,13.0,54,0.00,,,0.00,Wunderground v.1.15,2013-10-19 18:36:00,
2013-10-19 13:42:00,53.1,37.3,29.81,SW,232,13.0,13.0,55,0.00,,,0.00,Wunderground v.1.15,2013-10-19 18:42:00,
2013-10-19 13:44:00,53.2,37.0,29.81,WSW,242,12.0,15.0,54,0.00,,,0.00,Wunderground v.1.15,2013-10-19 18:44:00,
2013-10-19 13:46:00,53.3,37.1,29.81,SW,236,12.0,15.0,54,0.00,,,0.00,Wunderground v.1.15,2013-10-19 18:46:00,
2013-10-19 13:50:00,53.6,36.9,29.81,SSW,212,13.0,13.0,53,0.00,,,0.00,Wunderground v.1.15,2013-10-19 18:50:00,
2013-10-19 13:54:00,53.4,37.6,29.80,SW,218,13.0,13.0,55,0.00,,,0.00,Wunderground v.1.15,2013-10-19 18:54:00,
2013-10-19 13:56:00,53.6,35.9,29.80,SSW,212,12.0,13.0,51,0.00,,,0.00,Wunderground v.1.15,2013-10-19 18:56:00,
2013-10-19 13:58:00,53.6,37.3,29.80,SW,229,12.0,13.0,54,0.00,,,0.00,Wunderground v.1.15,2013-10-19 18:58:00,
2013-10-19 14:00:00,53.4,36.7,29.80,SW,226,12.0,12.0,53,0.00,,,0.00,Wunderground v.1.15,2013-10-19 19:00:00,
2013-10-19 14:02:00,53.1,35.9,29.80,WSW,246,12.0,12.0,52,0.00,,,0.00,Wunderground v.1.15,2013-10-19 19:02:00,
2013-10-19 14:04:00,53.1,36.9,29.80,WSW,252,12.0,14.0,54,0.00,,,0.00,Wunderground v.1.15,2013-10-19 19:04:00,
2013-10-19 14:06:00,53.0,36.3,29.80,SW,218,11.0,14.0,53,0.00,,,0.00,Wunderground v.1.15,2013-10-19 19:06:00,
2013-10-19 14:08:00,53.3,36.6,29.80,SW,218,11.0,16.0,53,0.00,,,0.00,Wunderground v.1.15,2013-10-19 19:08:00,
2013-10-19 14:12:00,53.4,36.2,29.80,WSW,249,12.0,18.0,52,0.00,,,0.00,Wunderground v.1.15,2013-10-19 19:12:00,
2013-10-19 14:14:00,53.5,36.8,29.80,WSW,243,13.0,18.0,53,0.00,,,0.00,Wunderground v.1.15,2013-10-19 19:14:00,
2013-10-19 14:16:00,53.6,36.4,29.80,West,262,14.0,18.0,52,0.00,,,0.00,Wunderground v.1.15,2013-10-19 19:16:00,
2013-10-19 14:18:00,53.4,35.7,29.80,SW,233,14.0,19.0,51,0.00,,,0.00,Wunderground v.1.15,2013-10-19 19:18:00,
2013-10-19 14:20:00,53.2,36.0,29.80,SW,219,14.0,14.0,52,0.00,,,0.00,Wunderground v.1.15,2013-10-19 19:20:00,
2013-10-19 14:26:00,52.9,35.7,29.80,SW,233,13.0,16.0,52,0.00,,,0.00,Wunderground v.1.15,2013-10-19 19:26:00,
2013-10-19 14:28:00,52.9,35.7,29.80,WSW,238,13.0,16.0,52,0.00,,,0.00,Wunderground v.1.15,2013-10-19 19:28:00,
2013-10-19 14:30:00,53.2,36.0,29.80,SW,224,13.0,18.0,52,0.00,,,0.00,Wunderground v.1.15,2013-10-19 19:30:00,
2013-10-19 14:32:00,53.5,36.3,29.80,SW,231,14.0,18.0,52,0.00,,,0.00,Wunderground v.1.15,2013-10-19 19:32:00,
2013-10-19 14:34:00,53.9,35.7,29.80,WSW,242,14.0,18.0,50,0.00,,,0.00,Wunderground v.1.15,2013-10-19 19:34:00,
2013-10-19 14:38:00,53.8,36.1,29.80,SW,233,15.0,18.0,51,0.00,,,0.00,Wunderground v.1.15,2013-10-19 19:38:00,
2013-10-19 14:40:00,53.8,36.1,29.80,SW,226,15.0,15.0,51,0.00,,,0.00,Wunderground v.1.15,2013-10-19 19:40:00,
2013-10-19 14:42:00,53.8,36.6,29.80,WSW,253,14.0,15.0,52,0.00,,,0.00,Wunderground v.1.15,2013-10-19 19:42:00,
2013-10-19 14:44:00,53.7,36.0,29.80,SW,233,14.0,15.0,51,0.00,,,0.00,Wunderground v.1.15,2013-10-19 19:44:00,
2013-10-19 14:48:00,54.2,36.5,29.79,SW,224,12.0,15.0,51,0.00,,,0.00,Wunderground v.1.15,2013-10-19 19:48:00,
2013-10-19 14:54:00,54.0,35.8,29.80,SW,222,12.0,18.0,50,0.00,,,0.00,Wunderground v.1.15,2013-10-19 19:54:00,
2013-10-19 14:56:00,53.7,35.5,29.80,SW,216,13.0,18.0,50,0.00,,,0.00,Wunderground v.1.15,2013-10-19 19:56:00,
2013-10-19 14:58:00,53.4,35.7,29.80,WSW,240,13.0,18.0,51,0.00,,,0.00,Wunderground v.1.15,2013-10-19 19:58:00,
2013-10-19 15:02:00,53.4,36.2,29.80,West,273,12.0,13.0,52,0.00,,,0.00,Wunderground v.1.15,2013-10-19 20:02:00,
2013-10-19 15:04:00,53.4,35.7,29.79,SW,224,12.0,13.0,51,0.00,,,0.00,Wunderground v.1.15,2013-10-19 20:04:00,
2013-10-19 15:06:00,53.4,35.7,29.79,WSW,252,12.0,13.0,51,0.00,,,0.00,Wunderground v.1.15,2013-10-19 20:06:00,
2013-10-19 15:08:00,53.4,36.2,29.79,WSW,241,12.0,13.0,52,0.00,,,0.00,Wunderground v.1.15,2013-10-19 20:08:00,
2013-10-19 15:12:00,53.3,36.1,29.79,SW,233,12.0,18.0,52,0.00,,,0.00,Wunderground v.1.15,2013-10-19 20:12:00,
2013-10-19 15:14:00,53.2,36.0,29.79,SW,229,12.0,18.0,52,0.00,,,0.00,Wunderground v.1.15,2013-10-19 20:14:00,
2013-10-19 15:16:00,53.2,36.0,29.80,SW,218,12.0,18.0,52,0.00,,,0.00,Wunderground v.1.15,2013-10-19 20:16:00,
2013-10-19 15:18:00,53.1,35.9,29.79,WSW,238,12.0,18.0,52,0.00,,,0.00,Wunderground v.1.15,2013-10-19 20:18:00,
2013-10-19 15:20:00,53.0,35.8,29.80,SW,233,12.0,13.0,52,0.00,,,0.00,Wunderground v.1.15,2013-10-19 20:20:00,
2013-10-19 15:22:00,52.8,35.6,29.80,WSW,239,12.0,13.0,52,0.00,,,0.00,Wunderground v.1.15,2013-10-19 20:22:00,
2013-10-19 15:24:00,52.6,35.5,29.80,SW,231,12.0,13.0,52,0.00,,,0.00,Wunderground v.1.15,2013-10-19 20:24:00,
2013-10-19 15:30:00,52.5,35.8,29.80,WSW,240,12.0,14.0,53,0.00,,,0.00,Wunderground v.1.15,2013-10-19 20:30:00,
2013-10-19 15:32:00,52.5,36.3,29.80,SW,233,11.0,14.0,54,0.00,,,0.00,Wunderground v.1.15,2013-10-19 20:32:00,
2013-10-19 15:34:00,52.5,36.8,29.80,SW,236,10.0,14.0,55,0.00,,,0.00,Wunderground v.1.15,2013-10-19 20:34:00,
2013-10-19 15:36:00,52.4,36.2,29.80,WSW,238,11.0,19.0,54,0.00,,,0.00,Wunderground v.1.15,2013-10-19 20:36:00,
2013-10-19 15:38:00,52.3,35.7,29.80,WSW,257,11.0,19.0,53,0.00,,,0.00,Wunderground v.1.15,2013-10-19 20:38:00,
2013-10-19 15:42:00,52.5,36.3,29.80,SW,223,13.0,14.0,54,0.00,,,0.00,Wunderground v.1.15,2013-10-19 20:42:00,
2013-10-19 15:44:00,52.6,35.9,29.80,WSW,238,14.0,17.0,53,0.00,,,0.00,Wunderground v.1.15,2013-10-19 20:44:00,
2013-10-19 15:48:00,52.5,35.8,29.80,WSW,250,15.0,17.0,53,0.00,,,0.00,Wunderground v.1.15,2013-10-19 20:48:00,
2013-10-19 15:50:00,52.4,36.2,29.80,SW,231,15.0,15.0,54,0.00,,,0.00,Wunderground v.1.15,2013-10-19 20:50:00,
2013-10-19 15:52:00,52.3,36.6,29.80,WSW,246,14.0,15.0,55,0.00,,,0.00,Wunderground v.1.15,2013-10-19 20:52:00,
2013-10-19 15:54:00,52.3,36.1,29.80,West,260,13.0,15.0,54,0.00,,,0.00,Wunderground v.1.15,2013-10-19 20:54:00,
2013-10-19 15:56:00,52.3,36.1,29.80,SW,233,12.0,15.0,54,0.00,,,0.00,Wunderground v.1.15,2013-10-19 20:56:00,
2013-10-19 15:58:00,52.3,36.1,29.80,West,260,12.0,15.0,54,0.00,,,0.00,Wunderground v.1.15,2013-10-19 20:58:00,
2013-10-19 16:02:00,52.0,36.8,29.80,WSW,248,13.0,19.0,56,0.00,,,0.00,Wunderground v.1.15,2013-10-19 21:02:00,
2013-10-19 16:04:00,51.8,37.0,29.80,SW,225,14.0,19.0,57,0.00,,,0.00,Wunderground v.1.15,2013-10-19 21:04:00,
2013-10-19 16:08:00,51.7,36.5,29.80,WSW,245,14.0,19.0,56,0.00,,,0.00,Wunderground v.1.15,2013-10-19 21:08:00,
2013-10-19 16:10:00,51.7,36.5,29.80,SW,233,14.0,14.0,56,0.00,,,0.00,Wunderground v.1.15,2013-10-19 21:10:00,
2013-10-19 16:12:00,51.7,36.5,29.80,SW,226,13.0,14.0,56,0.00,,,0.00,Wunderground v.1.15,2013-10-19 21:12:00,
2013-10-19 16:16:00,51.7,36.9,29.80,SW,217,11.0,14.0,57,0.00,,,0.00,Wunderground v.1.15,2013-10-19 21:16:00,
2013-10-19 16:18:00,51.6,37.7,29.81,West,263,9.0,14.0,59,0.00,,,0.00,Wunderground v.1.15,2013-10-19 21:18:00,
2013-10-19 16:20:00,51.5,37.6,29.81,WNW,287,9.0,14.0,59,0.00,,,0.00,Wunderground v.1.15,2013-10-19 21:20:00,
2013-10-19 16:26:00,50.6,37.6,29.81,SW,233,12.0,18.0,61,0.00,,,0.00,Wunderground v.1.15,2013-10-19 21:26:00,
2013-10-19 16:28:00,50.5,38.0,29.82,WSW,248,15.0,18.0,62,0.00,,,0.00,Wunderground v.1.15,2013-10-19 21:28:00,
2013-10-19 16:30:00,50.4,38.3,29.82,WSW,248,16.0,20.0,63,0.00,,,0.00,Wunderground v.1.15,2013-10-19 21:30:00,
2013-10-19 16:32:00,50.1,39.2,29.82,SW,233,16.0,20.0,66,0.00,,,0.00,Wunderground v.1.15,2013-10-19 21:32:00,
2013-10-19 16:36:00,49.7,39.2,29.82,WSW,252,15.0,20.0,67,0.00,,,0.00,Wunderground v.1.15,2013-10-19 21:36:00,
2013-10-19 16:38:00,49.6,39.5,29.82,WSW,245,13.0,20.0,68,0.00,,,0.00,Wunderground v.1.15,2013-10-19 21:38:00,
2013-10-19 16:40:00,49.4,39.7,29.82,West,276,12.0,12.0,69,0.00,,,0.00,Wunderground v.1.15,2013-10-19 21:40:00,
2013-10-19 16:42:00,49.3,39.9,29.82,SW,233,11.0,12.0,70,0.00,,,0.00,Wunderground v.1.15,2013-10-19 21:42:00,
2013-10-19 16:44:00,49.2,39.8,29.82,WSW,240,10.0,12.0,70,0.00,,,0.00,Wunderground v.1.15,2013-10-19 21:44:00,
2013-10-19 16:46:00,49.2,40.2,29.82,WNW,295,10.0,12.0,71,0.00,,,0.00,Wunderground v.1.15,2013-10-19 21:46:00,
2013-10-19 16:48:00,49.1,40.5,29.82,WSW,253,9.0,12.0,72,0.00,,,0.00,Wunderground v.1.15,2013-10-19 21:48:00,
2013-10-19 16:50:00,49.1,40.5,29.82,SW,231,9.0,9.0,72,0.00,,,0.00,Wunderground v.1.15,2013-10-19 21:50:00,
2013-10-19 16:54:00,49.0,40.7,29.82,SW,226,8.0,10.0,73,0.00,,,0.00,Wunderground v.1.15,2013-10-19 21:54:00,
2013-10-19 16:56:00,49.0,40.4,29.82,WSW,256,8.0,11.0,72,0.00,,,0.00,Wunderground v.1.15,2013-10-19 21:56:00,
2013-10-19 16:58:00,48.9,40.6,29.82,West,271,8.0,11.0,73,0.00,,,0.00,Wunderground v.1.15,2013-10-19 21:58:00,
2013-10-19 17:02:00,48.8,40.5,29.83,WSW,255,8.0,10.0,73,0.00,,,0.00,Wunderground v.1.15,2013-10-19 22:02:00,
2013-10-19 17:04:00,48.8,40.9,29.83,SW,231,8.0,10.0,74,0.00,,,0.00,Wunderground v.1.15,2013-10-19 22:04:00,
2013-10-19 17:06:00,48.7,40.4,29.83,SW,233,9.0,11.0,73,0.00,,,0.00,Wunderground v.1.15,2013-10-19 22:06:00,
2013-10-19 17:08:00,48.7,40.1,29.83,WSW,245,9.0,11.0,72,0.00,,,0.00,Wunderground v.1.15,2013-10-19 22:08:00,
2013-10-19 17:14:00,48.6,40.3,29.83,WSW,240,11.0,12.0,73,0.00,,,0.00,Wunderground v.1.15,2013-10-19 22:14:00,
2013-10-19 17:16:00,48.5,40.6,29.83,West,266,10.0,12.0,74,0.00,,,0.00,Wunderground v.1.15,2013-10-19 22:16:00,
2013-10-19 17:22:00,48.2,40.3,29.83,WSW,240,9.0,10.0,74,0.00,,,0.00,Wunderground v.1.15,2013-10-19 22:22:00,
2013-10-19 17:24:00,48.1,40.5,29.83,WSW,250,8.0,10.0,75,0.00,,,0.00,Wunderground v.1.15,2013-10-19 22:24:00,
2013-10-19 17:28:00,48.0,40.5,29.83,WSW,253,8.0,10.0,75,0.00,,,0.00,Wunderground v.1.15,2013-10-19 22:28:00,
2013-10-19 17:30:00,48.0,40.5,29.83,WSW,240,8.0,8.0,75,0.00,,,0.00,Wunderground v.1.15,2013-10-19 22:30:00,
2013-10-19 17:32:00,48.0,40.5,29.82,West,259,8.0,9.0,75,0.00,,,0.00,Wunderground v.1.15,2013-10-19 22:32:00,
2013-10-19 17:34:00,48.0,40.5,29.82,SW,236,7.0,10.0,75,0.00,,,0.00,Wunderground v.1.15,2013-10-19 22:34:00,
2013-10-19 17:40:00,47.9,40.7,29.82,SW,235,7.0,7.0,76,0.00,,,0.00,Wunderground v.1.15,2013-10-19 22:40:00,
2013-10-19 17:42:00,47.9,40.7,29.82,SW,235,6.0,8.0,76,0.00,,,0.00,Wunderground v.1.15,2013-10-19 22:42:00,
2013-10-19 17:46:00,47.9,40.4,29.82,WSW,238,6.0,8.0,75,0.00,,,0.00,Wunderground v.1.15,2013-10-19 22:46:00,
2013-10-19 17:48:00,48.0,40.5,29.82,WSW,255,6.0,8.0,75,0.00,,,0.00,Wunderground v.1.15,2013-10-19 22:48:00,
2013-10-19 17:52:00,48.0,40.5,29.82,SW,224,7.0,8.0,75,0.00,,,0.00,Wunderground v.1.15,2013-10-19 22:52:00,
2013-10-19 17:54:00,48.0,40.5,29.82,SW,219,6.0,8.0,75,0.00,,,0.00,Wunderground v.1.15,2013-10-19 22:54:00,
2013-10-19 17:56:00,47.9,40.4,29.82,SSW,212,7.0,8.0,75,0.00,,,0.00,Wunderground v.1.15,2013-10-19 22:56:00,
2013-10-19 17:58:00,47.9,40.4,29.82,SW,236,6.0,8.0,75,0.00,,,0.00,Wunderground v.1.15,2013-10-19 22:58:00,
2013-10-19 18:02:00,47.6,40.4,29.82,SW,218,6.0,8.0,76,0.00,,,0.00,Wunderground v.1.15,2013-10-19 23:02:00,
2013-10-19 18:04:00,47.4,40.2,29.82,SW,235,6.0,8.0,76,0.00,,,0.00,Wunderground v.1.15,2013-10-19 23:04:00,
2013-10-19 18:06:00,47.2,40.4,29.82,SW,233,5.0,8.0,77,0.00,,,0.00,Wunderground v.1.15,2013-10-19 23:06:00,
2013-10-19 18:10:00,46.9,40.1,29.82,WSW,249,5.0,8.0,77,0.00,,,0.00,Wunderground v.1.15,2013-10-19 23:10:00,
2013-10-19 18:12:00,46.7,40.2,29.82,WSW,248,4.0,8.0,78,0.00,,,0.00,Wunderground v.1.15,2013-10-19 23:12:00,
2013-10-19 18:14:00,46.4,39.9,29.82,SW,224,4.0,8.0,78,0.00,,,0.00,Wunderground v.1.15,2013-10-19 23:14:00,
2013-10-19 18:16:00,46.3,40.1,29.82,SW,228,4.0,8.0,79,0.00,,,0.00,Wunderground v.1.15,2013-10-19 23:16:00,
2013-10-19 18:18:00,46.1,39.9,29.82,WSW,243,3.0,8.0,79,0.00,,,0.00,Wunderground v.1.15,2013-10-19 23:18:00,
2013-10-19 18:20:00,46.0,39.9,29.82,WSW,239,3.0,8.0,79,0.00,,,0.00,Wunderground v.1.15,2013-10-19 23:20:00,
2013-10-19 18:22:00,45.8,39.7,29.82,WSW,248,3.0,8.0,79,0.00,,,0.00,Wunderground v.1.15,2013-10-19 23:22:00,
2013-10-19 18:24:00,45.6,39.8,29.82,SW,236,3.0,8.0,80,0.00,,,0.00,Wunderground v.1.15,2013-10-19 23:24:00,
2013-10-19 18:28:00,45.3,39.5,29.82,WSW,249,2.0,8.0,80,0.00,,,0.00,Wunderground v.1.15,2013-10-19 23:28:00,
2013-10-19 18:30:00,45.1,39.3,29.82,WSW,243,2.0,8.0,80,0.00,,,0.00,Wunderground v.1.15,2013-10-19 23:30:00,
2013-10-19 18:36:00,45.0,39.2,29.82,SW,224,2.0,8.0,80,0.00,,,0.00,Wunderground v.1.15,2013-10-19 23:36:00,
2013-10-19 18:38:00,44.8,39.0,29.82,SW,222,2.0,8.0,80,0.00,,,0.00,Wunderground v.1.15,2013-10-19 23:38:00,
2013-10-19 18:42:00,44.1,38.6,29.83,SSW,209,2.0,8.0,81,0.00,,,0.00,Wunderground v.1.15,2013-10-19 23:42:00,
2013-10-19 18:44:00,43.7,38.3,29.83,SSW,203,2.0,8.0,81,0.00,,,0.00,Wunderground v.1.15,2013-10-19 23:44:00,
2013-10-19 18:46:00,43.4,38.3,29.83,SSW,200,2.0,8.0,82,0.00,,,0.00,Wunderground v.1.15,2013-10-19 23:46:00,
2013-10-19 18:50:00,42.9,38.4,29.83,SSW,198,2.0,8.0,84,0.00,,,0.00,Wunderground v.1.15,2013-10-19 23:50:00,
2013-10-19 18:52:00,42.7,38.5,29.83,SSW,205,3.0,8.0,85,0.00,,,0.00,Wunderground v.1.15,2013-10-19 23:52:00,
2013-10-19 18:54:00,42.7,38.8,29.83,SSW,205,3.0,8.0,86,0.00,,,0.00,Wunderground v.1.15,2013-10-19 23:54:00,
2013-10-19 18:56:00,42.7,38.8,29.83,South,191,3.0,8.0,86,0.00,,,0.00,Wunderground v.1.15,2013-10-19 23:56:00,
2013-10-19 18:58:00,42.8,38.9,29.83,South,187,3.0,8.0,86,0.00,,,0.00,Wunderground v.1.15,2013-10-19 23:58:00,
2013-10-19 19:00:00,42.8,38.9,29.83,SSW,197,3.0,8.0,86,0.00,,,0.00,Wunderground v.1.15,2013-10-20 00:00:00,
2013-10-19 19:02:00,42.9,39.3,29.83,SSW,195,3.0,8.0,87,0.00,,,0.00,Wunderground v.1.15,2013-10-20 00:02:00,
2013-10-19 19:04:00,43.1,39.2,29.83,SSW,200,3.0,8.0,86,0.00,,,0.00,Wunderground v.1.15,2013-10-20 00:04:00,
2013-10-19 19:06:00,43.2,39.6,29.83,SSW,195,4.0,8.0,87,0.00,,,0.00,Wunderground v.1.15,2013-10-20 00:06:00,
2013-10-19 19:08:00,43.4,39.8,29.83,SSW,200,4.0,8.0,87,0.00,,,0.00,Wunderground v.1.15,2013-10-20 00:08:00,
2013-10-19 19:10:00,43.6,40.0,29.83,SSW,194,4.0,8.0,87,0.00,,,0.00,Wunderground v.1.15,2013-10-20 00:10:00,
2013-10-19 19:12:00,43.7,39.8,29.82,SSW,209,4.0,8.0,86,0.00,,,0.00,Wunderground v.1.15,2013-10-20 00:12:00,
2013-10-19 19:14:00,43.7,39.8,29.83,SSW,200,4.0,8.0,86,0.00,,,0.00,Wunderground v.1.15,2013-10-20 00:14:00,
2013-10-19 19:16:00,43.7,39.8,29.83,South,181,4.0,8.0,86,0.00,,,0.00,Wunderground v.1.15,2013-10-20 00:16:00,
2013-10-19 19:18:00,43.6,39.7,29.83,SSW,210,4.0,8.0,86,0.00,,,0.00,Wunderground v.1.15,2013-10-20 00:18:00,
2013-10-19 19:20:00,43.5,39.6,29.82,SSW,195,4.0,8.0,86,0.00,,,0.00,Wunderground v.1.15,2013-10-20 00:20:00,
2013-10-19 19:24:00,43.6,39.7,29.83,SSW,195,4.0,8.0,86,0.00,,,0.00,Wunderground v.1.15,2013-10-20 00:24:00,
2013-10-19 19:26:00,43.7,39.8,29.83,SSW,195,4.0,8.0,86,0.00,,,0.00,Wunderground v.1.15,2013-10-20 00:26:00,
2013-10-19 19:28:00,43.9,39.7,29.83,SSW,194,4.0,8.0,85,0.00,,,0.00,Wunderground v.1.15,2013-10-20 00:28:00,
2013-10-19 19:30:00,44.1,39.6,29.83,SSW,193,4.0,4.0,84,0.00,,,0.00,Wunderground v.1.15,2013-10-20 00:30:00,
2013-10-19 19:34:00,44.2,39.4,29.83,SSW,198,3.0,8.0,83,0.00,,,0.00,Wunderground v.1.15,2013-10-20 00:34:00,
2013-10-19 19:36:00,44.4,39.6,29.82,South,187,3.0,8.0,83,0.00,,,0.00,Wunderground v.1.15,2013-10-20 00:36:00,
2013-10-19 19:38:00,44.4,39.6,29.83,SSW,193,3.0,8.0,83,0.00,,,0.00,Wunderground v.1.15,2013-10-20 00:38:00,
2013-10-19 19:42:00,44.3,39.5,29.83,South,186,2.0,8.0,83,0.00,,,0.00,Wunderground v.1.15,2013-10-20 00:42:00,
2013-10-19 19:44:00,44.3,39.5,29.83,SSW,194,2.0,8.0,83,0.00,,,0.00,Wunderground v.1.15,2013-10-20 00:44:00,
2013-10-19 19:46:00,44.3,39.5,29.83,South,180,2.0,8.0,83,0.00,,,0.00,Wunderground v.1.15,2013-10-20 00:46:00,
2013-10-19 19:50:00,44.2,39.4,29.83,ESE,121,2.0,8.0,83,0.00,,,0.00,Wunderground v.1.15,2013-10-20 00:50:00,
2013-10-19 19:52:00,44.2,39.4,29.83,SSE,167,2.0,8.0,83,0.00,,,0.00,Wunderground v.1.15,2013-10-20 00:52:00,
2013-10-19 19:58:00,44.1,39.3,29.83,SSE,167,3.0,8.0,83,0.00,,,0.00,Wunderground v.1.15,2013-10-20 00:58:00,
2013-10-19 20:00:00,44.1,39.3,29.83,SSW,193,3.0,8.0,83,0.00,,,0.00,Wunderground v.1.15,2013-10-20 01:00:00,
2013-10-19 20:02:00,44.1,39.3,29.83,South,183,3.0,8.0,83,0.00,,,0.00,Wunderground v.1.15,2013-10-20 01:02:00,
2013-10-19 20:04:00,44.1,39.3,29.83,SSW,206,3.0,8.0,83,0.00,,,0.00,Wunderground v.1.15,2013-10-20 01:04:00,
2013-10-19 20:06:00,44.1,39.3,29.83,South,183,2.0,8.0,83,0.00,,,0.00,Wunderground v.1.15,2013-10-20 01:06:00,
2013-10-19 20:08:00,44.0,39.2,29.83,South,188,2.0,8.0,83,0.00,,,0.00,Wunderground v.1.15,2013-10-20 01:08:00,
2013-10-19 20:14:00,43.8,38.7,29.83,SSW,195,2.0,8.0,82,0.00,,,0.00,Wunderground v.1.15,2013-10-20 01:14:00,
2013-10-19 20:16:00,43.8,38.7,29.83,South,186,2.0,8.0,82,0.00,,,0.00,Wunderground v.1.15,2013-10-20 01:16:00,
2013-10-19 20:18:00,43.9,38.8,29.83,South,191,2.0,8.0,82,0.00,,,0.00,Wunderground v.1.15,2013-10-20 01:18:00,
2013-10-19 20:20:00,43.9,38.8,29.83,South,183,3.0,3.0,82,0.00,,,0.00,Wunderground v.1.15,2013-10-20 01:20:00,
2013-10-19 20:22:00,44.0,38.9,29.83,South,180,3.0,4.0,82,0.00,,,0.00,Wunderground v.1.15,2013-10-20 01:22:00,
2013-10-19 20:24:00,44.1,38.6,29.83,SSW,198,3.0,8.0,81,0.00,,,0.00,Wunderground v.1.15,2013-10-20 01:24:00,
2013-10-19 20:28:00,44.4,38.9,29.83,SSW,200,4.0,8.0,81,0.00,,,0.00,Wunderground v.1.15,2013-10-20 01:28:00,
2013-10-19 20:32:00,44.8,39.0,29.83,SSW,195,4.0,8.0,80,0.00,,,0.00,Wunderground v.1.15,2013-10-20 01:32:00,
2013-10-19 20:34:00,44.9,39.1,29.83,SSW,203,4.0,8.0,80,0.00,,,0.00,Wunderground v.1.15,2013-10-20 01:34:00,
2013-10-19 20:36:00,45.0,38.9,29.83,SW,233,4.0,8.0,79,0.00,,,0.00,Wunderground v.1.15,2013-10-20 01:36:00,
2013-10-19 20:38:00,44.9,38.8,29.83,SSW,210,3.0,8.0,79,0.00,,,0.00,Wunderground v.1.15,2013-10-20 01:38:00,
2013-10-19 20:40:00,44.9,38.8,29.83,SW,224,3.0,8.0,79,0.00,,,0.00,Wunderground v.1.15,2013-10-20 01:40:00,
2013-10-19 20:42:00,44.8,38.7,29.83,WSW,243,3.0,8.0,79,0.00,,,0.00,Wunderground v.1.15,2013-10-20 01:42:00,
2013-10-19 20:44:00,44.7,38.6,29.83,West,274,3.0,8.0,79,0.00,,,0.00,Wunderground v.1.15,2013-10-20 01:44:00,
2013-10-19 20:46:00,44.8,38.7,29.83,WSW,248,4.0,8.0,79,0.00,,,0.00,Wunderground v.1.15,2013-10-20 01:46:00,
2013-10-19 20:48:00,45.1,39.0,29.83,SW,228,4.0,8.0,79,0.00,,,0.00,Wunderground v.1.15,2013-10-20 01:48:00,
2013-10-19 20:50:00,45.2,38.7,29.83,SW,229,5.0,8.0,78,0.00,,,0.00,Wunderground v.1.15,2013-10-20 01:50:00,
2013-10-19 20:52:00,45.3,38.8,29.83,WNW,285,5.0,8.0,78,0.00,,,0.00,Wunderground v.1.15,2013-10-20 01:52:00,
2013-10-19 20:54:00,45.5,39.0,29.83,WSW,250,5.0,8.0,78,0.00,,,0.00,Wunderground v.1.15,2013-10-20 01:54:00,
2013-10-19 20:56:00,45.8,39.0,29.84,NW,326,5.0,8.0,77,0.00,,,0.00,Wunderground v.1.15,2013-10-20 01:56:00,
2013-10-19 20:58:00,45.2,38.4,29.84,West,269,5.0,8.0,77,0.00,,,0.00,Wunderground v.1.15,2013-10-20 01:58:00,
2013-10-19 21:02:00,44.7,38.6,29.84,SW,224,5.0,8.0,79,0.00,,,0.00,Wunderground v.1.15,2013-10-20 02:02:00,
2013-10-19 21:04:00,44.8,38.7,29.84,WSW,245,5.0,8.0,79,0.00,,,0.00,Wunderground v.1.15,2013-10-20 02:04:00,
2013-10-19 21:06:00,44.9,38.8,29.84,SW,224,4.0,8.0,79,0.00,,,0.00,Wunderground v.1.15,2013-10-20 02:06:00,
2013-10-19 21:08:00,45.0,38.9,29.85,WSW,243,4.0,8.0,79,0.00,,,0.00,Wunderground v.1.15,2013-10-20 02:08:00,
2013-10-19 21:10:00,45.1,39.0,29.85,WSW,250,4.0,8.0,79,0.00,,,0.00,Wunderground v.1.15,2013-10-20 02:10:00,
2013-10-19 21:12:00,45.2,39.1,29.85,SSW,207,4.0,8.0,79,0.00,,,0.00,Wunderground v.1.15,2013-10-20 02:12:00,
2013-10-19 21:14:00,45.2,39.1,29.85,WSW,243,4.0,8.0,79,0.00,,,0.00,Wunderground v.1.15,2013-10-20 02:14:00,
2013-10-19 21:18:00,45.2,38.7,29.84,West,276,4.0,8.0,78,0.00,,,0.00,Wunderground v.1.15,2013-10-20 02:18:00,
2013-10-19 21:20:00,45.3,38.8,29.84,SW,225,4.0,8.0,78,0.00,,,0.00,Wunderground v.1.15,2013-10-20 02:20:00,
2013-10-19 21:22:00,45.3,38.8,29.84,WSW,255,4.0,8.0,78,0.00,,,0.00,Wunderground v.1.15,2013-10-20 02:22:00,
2013-10-19 21:24:00,45.4,38.9,29.85,West,259,3.0,8.0,78,0.00,,,0.00,Wunderground v.1.15,2013-10-20 02:24:00,
2013-10-19 21:26:00,45.3,38.8,29.85,SW,221,3.0,8.0,78,0.00,,,0.00,Wunderground v.1.15,2013-10-20 02:26:00,
2013-10-19 21:28:00,45.3,38.8,29.85,WSW,249,4.0,8.0,78,0.00,,,0.00,Wunderground v.1.15,2013-10-20 02:28:00,
2013-10-19 21:30:00,45.3,38.8,29.85,WSW,240,4.0,4.0,78,0.00,,,0.00,Wunderground v.1.15,2013-10-20 02:30:00,
2013-10-19 21:32:00,45.3,38.8,29.85,SW,219,4.0,8.0,78,0.00,,,0.00,Wunderground v.1.15,2013-10-20 02:32:00,
2013-10-19 21:36:00,45.1,39.0,29.85,WSW,249,3.0,8.0,79,0.00,,,0.00,Wunderground v.1.15,2013-10-20 02:36:00,
2013-10-19 21:38:00,45.0,38.9,29.85,West,264,3.0,8.0,79,0.00,,,0.00,Wunderground v.1.15,2013-10-20 02:38:00,
2013-10-19 21:44:00,45.3,38.8,29.85,WSW,240,4.0,8.0,78,0.00,,,0.00,Wunderground v.1.15,2013-10-20 02:44:00,
2013-10-19 21:46:00,45.3,38.8,29.85,WSW,250,4.0,8.0,78,0.00,,,0.00,Wunderground v.1.15,2013-10-20 02:46:00,
2013-10-19 21:50:00,45.5,39.0,29.85,SW,235,4.0,8.0,78,0.00,,,0.00,Wunderground v.1.15,2013-10-20 02:50:00,
2013-10-19 21:52:00,45.6,38.8,29.85,SW,224,3.0,8.0,77,0.00,,,0.00,Wunderground v.1.15,2013-10-20 02:52:00,
2013-10-19 21:54:00,45.5,38.7,29.85,SW,233,3.0,8.0,77,0.00,,,0.00,Wunderground v.1.15,2013-10-20 02:54:00,
2013-10-19 21:56:00,45.4,38.9,29.85,SW,233,3.0,8.0,78,0.00,,,0.00,Wunderground v.1.15,2013-10-20 02:56:00,
2013-10-19 21:58:00,45.2,38.7,29.85,SW,221,3.0,8.0,78,0.00,,,0.00,Wunderground v.1.15,2013-10-20 02:58:00,
2013-10-19 22:00:00,45.1,38.6,29.85,WSW,238,3.0,3.0,78,0.00,,,0.00,Wunderground v.1.15,2013-10-20 03:00:00,
2013-10-19 22:04:00,44.9,38.8,29.85,WSW,240,2.0,8.0,79,0.00,,,0.00,Wunderground v.1.15,2013-10-20 03:04:00,
2013-10-19 22:08:00,45.1,39.0,29.84,West,270,2.0,8.0,79,0.00,,,0.00,Wunderground v.1.15,2013-10-20 03:08:00,
2013-10-19 22:10:00,45.2,38.7,29.84,West,263,2.0,8.0,78,0.00,,,0.00,Wunderground v.1.15,2013-10-20 03:10:00,
2013-10-19 22:14:00,45.5,39.0,29.84,SW,235,2.0,8.0,78,0.00,,,0.00,Wunderground v.1.15,2013-10-20 03:14:00,
2013-10-19 22:16:00,45.7,38.9,29.84,WSW,252,2.0,8.0,77,0.00,,,0.00,Wunderground v.1.15,2013-10-20 03:16:00,
2013-10-19 22:18:00,45.8,39.0,29.84,West,266,2.0,8.0,77,0.00,,,0.00,Wunderground v.1.15,2013-10-20 03:18:00,
2013-10-19 22:20:00,45.9,39.1,29.84,West,264,3.0,3.0,77,0.00,,,0.00,Wunderground v.1.15,2013-10-20 03:20:00,
2013-10-19 22:24:00,46.1,39.0,29.84,WSW,240,2.0,8.0,76,0.00,,,0.00,Wunderground v.1.15,2013-10-20 03:24:00,
2013-10-19 22:26:00,46.1,39.0,29.84,WSW,238,2.0,8.0,76,0.00,,,0.00,Wunderground v.1.15,2013-10-20 03:26:00,
2013-10-19 22:32:00,46.2,39.1,29.84,SW,235,2.0,8.0,76,0.00,,,0.00,Wunderground v.1.15,2013-10-20 03:32:00,
2013-10-19 22:34:00,46.2,39.1,29.84,SW,235,2.0,8.0,76,0.00,,,0.00,Wunderground v.1.15,2013-10-20 03:34:00,
2013-10-19 22:36:00,46.2,39.1,29.84,WSW,238,2.0,8.0,76,0.00,,,0.00,Wunderground v.1.15,2013-10-20 03:36:00,
2013-10-19 22:38:00,45.9,38.8,29.84,South,188,2.0,8.0,76,0.00,,,0.00,Wunderground v.1.15,2013-10-20 03:38:00,
2013-10-19 22:40:00,45.5,38.7,29.84,South,185,2.0,2.0,77,0.00,,,0.00,Wunderground v.1.15,2013-10-20 03:40:00,
2013-10-19 22:42:00,45.0,38.6,29.84,SSW,193,2.0,8.0,78,0.00,,,0.00,Wunderground v.1.15,2013-10-20 03:42:00,
2013-10-19 22:48:00,44.2,38.4,29.84,SSW,193,1.0,8.0,80,0.00,,,0.00,Wunderground v.1.15,2013-10-20 03:48:00,
2013-10-19 22:50:00,43.9,38.1,29.84,SSW,200,1.0,8.0,80,0.00,,,0.00,Wunderground v.1.15,2013-10-20 03:50:00,
2013-10-19 22:52:00,43.6,37.8,29.84,South,191,1.0,8.0,80,0.00,,,0.00,Wunderground v.1.15,2013-10-20 03:52:00,
2013-10-19 22:54:00,43.3,37.9,29.84,SSE,148,1.0,8.0,81,0.00,,,0.00,Wunderground v.1.15,2013-10-20 03:54:00,
2013-10-19 22:56:00,42.9,37.8,29.84,SE,133,1.0,8.0,82,0.00,,,0.00,Wunderground v.1.15,2013-10-20 03:56:00,
2013-10-19 22:58:00,42.6,37.8,29.83,SE,134,1.0,8.0,83,0.00,,,0.00,Wunderground v.1.15,2013-10-20 03:58:00,
2013-10-19 23:00:00,42.3,37.8,29.83,ESE,123,1.0,8.0,84,0.00,,,0.00,Wunderground v.1.15,2013-10-20 04:00:00,
2013-10-19 23:02:00,42.1,37.9,29.83,SE,141,1.0,8.0,85,0.00,,,0.00,Wunderground v.1.15,2013-10-20 04:02:00,
2013-10-19 23:04:00,41.9,37.7,29.83,SE,141,1.0,8.0,85,0.00,,,0.00,Wunderground v.1.15,2013-10-20 04:04:00,
2013-10-19 23:06:00,41.7,37.5,29.83,SSE,158,1.0,8.0,85,0.00,,,0.00,Wunderground v.1.15,2013-10-20 04:06:00,
2013-10-19 23:08:00,41.6,37.7,29.84,SE,134,1.0,8.0,86,0.00,,,0.00,Wunderground v.1.15,2013-10-20 04:08:00,
2013-10-19 23:10:00,41.5,37.6,29.84,SE,137,1.0,8.0,86,0.00,,,0.00,Wunderground v.1.15,2013-10-20 04:10:00,
2013-10-19 23:16:00,41.5,37.9,29.84,ESE,122,1.0,8.0,87,0.00,,,0.00,Wunderground v.1.15,2013-10-20 04:16:00,
2013-10-19 23:18:00,41.4,37.8,29.84,SE,144,1.0,8.0,87,0.00,,,0.00,Wunderground v.1.15,2013-10-20 04:18:00,
2013-10-19 23:20:00,41.4,37.8,29.84,SE,144,1.0,1.0,87,0.00,,,0.00,Wunderground v.1.15,2013-10-20 04:20:00,
2013-10-19 23:24:00,41.5,37.9,29.84,SE,144,1.0,8.0,87,0.00,,,0.00,Wunderground v.1.15,2013-10-20 04:24:00,
2013-10-19 23:26:00,41.5,38.2,29.84,SE,144,0.0,8.0,88,0.00,,,0.00,Wunderground v.1.15,2013-10-20 04:26:00,
2013-10-19 23:30:00,41.8,38.5,29.84,SE,143,1.0,8.0,88,0.00,,,0.00,Wunderground v.1.15,2013-10-20 04:30:00,
2013-10-19 23:32:00,41.8,38.2,29.84,SE,143,1.0,8.0,87,0.00,,,0.00,Wunderground v.1.15,2013-10-20 04:32:00,
2013-10-19 23:34:00,41.7,38.1,29.84,SE,144,1.0,8.0,87,0.00,,,0.00,Wunderground v.1.15,2013-10-20 04:34:00,
2013-10-19 23:36:00,41.6,38.0,29.84,SE,144,1.0,8.0,87,0.00,,,0.00,Wunderground v.1.15,2013-10-20 04:36:00,
2013-10-19 23:38:00,41.5,37.9,29.84,SE,143,0.0,8.0,87,0.00,,,0.00,Wunderground v.1.15,2013-10-20 04:38:00,
2013-10-19 23:42:00,41.3,37.7,29.84,SSE,149,0.0,8.0,87,0.00,,,0.00,Wunderground v.1.15,2013-10-20 04:42:00,
2013-10-19 23:44:00,41.2,37.6,29.84,SSE,149,0.0,8.0,87,0.00,,,0.00,Wunderground v.1.15,2013-10-20 04:44:00,
2013-10-19 23:46:00,41.1,37.8,29.84,SSE,150,0.0,8.0,88,0.00,,,0.00,Wunderground v.1.15,2013-10-20 04:46:00,
2013-10-19 23:48:00,40.9,37.6,29.84,SSE,154,0.0,8.0,88,0.00,,,0.00,Wunderground v.1.15,2013-10-20 04:48:00,
2013-10-19 23:52:00,40.7,37.4,29.84,SSE,153,0.0,8.0,88,0.00,,,0.00,Wunderground v.1.15,2013-10-20 04:52:00,
2013-10-19 23:56:00,40.6,37.3,29.84,SSE,153,0.0,8.0,88,0.00,,,0.00,Wunderground v.1.15,2013-10-20 04:56:00,
2013-10-19 23:58:00,40.6,37.6,29.84,SSE,153,0.0,8.0,89,0.00,,,0.00,Wunderground v.1.15,2013-10-20 04:58:00,